When you browse on this site, cookies collect data to enhance your experience and personalize the content and advertising you see.
Visit our Privacy Policy to learn more. By continuing to use the site, you agree to this use of cookies and data.
  • In Österreich
  • Länderverzeichnis
  • Für 7 Tage
  • Wassertemperatur
  • Wetterkarte
  • News
  • Widgets
  • user-avatar
    Anmelden

    Stündliche Wetter Adelaide

    Heute, 22 Oktober, Dienstag

    Zeit Temperatur Niederschläge Wind Luftdruck Luftfeuchtigkeit
    00:00 +16°C° 0 mm 2 m/S 764 mmHg 56%
    01:00 +16°C° 0 mm 2 m/S 763 mmHg 54%
    02:00 +16°C° 0 mm 2 m/S 763 mmHg 52%
    03:00 +16°C° 0 mm 2 m/S 763 mmHg 53%
    04:00 +16°C° 0 mm 2 m/S 763 mmHg 53%
    05:00 +16°C° 0 mm 2 m/S 763 mmHg 54%
    06:00 +16°C° 0 mm 1 m/S 764 mmHg 54%
    07:00 +20°C° 0 mm 1 m/S 764 mmHg 48%
    08:00 +23°C° 0 mm 1 m/S 764 mmHg 42%
    09:00 +25°C° 0 mm 1 m/S 764 mmHg 36%
    10:00 +26°C° 0 mm 2 m/S 763 mmHg 33%
    11:00 +27°C° 0 mm 2 m/S 763 mmHg 31%
    12:00 +27°C° 0 mm 2 m/S 762 mmHg 28%
    13:00 +28°C° 0 mm 2 m/S 762 mmHg 28%
    14:00 +28°C° 0 mm 2 m/S 761 mmHg 28%
    15:00 +28°C° 0 mm 2 m/S 761 mmHg 28%
    16:00 +26°C° 0 mm 2 m/S 761 mmHg 33%
    17:00 +24°C° 0 mm 2 m/S 761 mmHg 39%
    18:00 +21°C° 0 mm 2 m/S 761 mmHg 45%
    19:00 +21°C° 0 mm 3 m/S 761 mmHg 42%
    20:00 +20°C° 0 mm 3 m/S 761 mmHg 39%
    21:00 +20°C° 0 mm 3 m/S 761 mmHg 36%
    22:00 +20°C° 0 mm 3 m/S 761 mmHg 39%
    23:00 +20°C° 0 mm 3 m/S 761 mmHg 41%

    Morgen, 23 Oktober, Mittwoch

    Zeit Temperatur Niederschläge Wind Luftdruck Luftfeuchtigkeit
    00:00 +20°C° 0 mm 3 m/S 761 mmHg 43%
    01:00 +19°C° 0 mm 3 m/S 760 mmHg 43%
    02:00 +19°C° 0 mm 3 m/S 760 mmHg 43%
    03:00 +19°C° 0 mm 3 m/S 760 mmHg 44%
    04:00 +19°C° 0 mm 3 m/S 760 mmHg 43%
    05:00 +20°C° 0 mm 3 m/S 760 mmHg 42%
    06:00 +20°C° 0 mm 3 m/S 760 mmHg 41%
    07:00 +22°C° 0 mm 3 m/S 760 mmHg 37%
    08:00 +26°C° 0 mm 3 m/S 760 mmHg 33%
    09:00 +29°C° 0 mm 3 m/S 760 mmHg 28%
    10:00 +29°C° 0 mm 3 m/S 760 mmHg 27%
    11:00 +30°C° 0 mm 3 m/S 759 mmHg 26%
    12:00 +30°C° 0 mm 3 m/S 758 mmHg 25%
    13:00 +30°C° 0 mm 3 m/S 758 mmHg 25%
    14:00 +30°C° 0 mm 2 m/S 757 mmHg 24%
    15:00 +30°C° 0 mm 2 m/S 757 mmHg 24%
    16:00 +28°C° 0 mm 2 m/S 756 mmHg 27%
    17:00 +27°C° 0 mm 2 m/S 756 mmHg 30%
    18:00 +25°C° 0 mm 2 m/S 756 mmHg 32%
    19:00 +24°C° 0 mm 2 m/S 756 mmHg 32%
    20:00 +24°C° 0 mm 2 m/S 756 mmHg 31%
    21:00 +22°C° 0 mm 3 m/S 756 mmHg 31%
    22:00 +22°C° 0 mm 3 m/S 756 mmHg 31%
    23:00 +24°C° 0 mm 3 m/S 755 mmHg 30%

    übermorgen, 24 Oktober, Donnerstag

    Zeit Temperatur Niederschläge Wind Luftdruck Luftfeuchtigkeit
    00:00 +24°C° 0 mm 3 m/S 755 mmHg 30%
    01:00 +23°C° 0 mm 4 m/S 755 mmHg 29%
    02:00 +23°C° 0 mm 4 m/S 754 mmHg 28%
    03:00 +23°C° 0 mm 4 m/S 754 mmHg 27%
    04:00 +23°C° 0 mm 4 m/S 753 mmHg 29%
    05:00 +23°C° 0 mm 4 m/S 753 mmHg 30%
    06:00 +23°C° 0 mm 4 m/S 753 mmHg 32%
    07:00 +26°C° 0 mm 5 m/S 753 mmHg 28%
    08:00 +29°C° 0 mm 6 m/S 753 mmHg 23%
    09:00 +33°C° 0 mm 6 m/S 752 mmHg 19%
    10:00 +33°C° 0 mm 7 m/S 752 mmHg 19%
    11:00 +34°C° 0 mm 7 m/S 751 mmHg 18%
    12:00 +34°C° 0 mm 7 m/S 750 mmHg 18%
    13:00 +34°C° 0 mm 7 m/S 749 mmHg 18%
    14:00 +34°C° 0 mm 7 m/S 748 mmHg 18%
    15:00 +34°C° 0 mm 7 m/S 747 mmHg 18%
    16:00 +33°C° 0 mm 7 m/S 747 mmHg 20%
    17:00 +32°C° 0 mm 7 m/S 747 mmHg 23%
    18:00 +29°C° 0 mm 7 m/S 747 mmHg 26%
    19:00 +24°C° 0 mm 6 m/S 748 mmHg 44%
    20:00 +21°C° 0 mm 6 m/S 749 mmHg 62%
    21:00 +16°C° 0 mm 6 m/S 750 mmHg 80%
    22:00 +15°C° 0 mm 5 m/S 751 mmHg 81%
    23:00 +15°C° 0 mm 5 m/S 752 mmHg 82%

    25 Oktober, Freitag

    Zeit Temperatur Niederschläge Wind Luftdruck Luftfeuchtigkeit
    00:00 +14°C° 0 mm 5 m/S 753 mmHg 83%
    01:00 +14°C° 0 mm 5 m/S 753 mmHg 81%
    02:00 +13°C° 0 mm 5 m/S 753 mmHg 79%
    03:00 +13°C° 0 mm 6 m/S 753 mmHg 77%
    04:00 +13°C° 0 mm 6 m/S 753 mmHg 75%
    05:00 +13°C° 0 mm 6 m/S 754 mmHg 74%
    06:00 +13°C° 0 mm 6 m/S 754 mmHg 72%
    07:00 +14°C° 0 mm 7 m/S 754 mmHg 68%
    08:00 +15°C° 0 mm 7 m/S 754 mmHg 65%
    09:00 +15°C° 0 mm 8 m/S 754 mmHg 61%
    10:00 +16°C° 0 mm 8 m/S 754 mmHg 57%
    11:00 +16°C° 0 mm 8 m/S 754 mmHg 53%
    12:00 +17°C° 0 mm 9 m/S 754 mmHg 49%
    13:00 +17°C° 0 mm 8 m/S 753 mmHg 50%
    14:00 +17°C° 0 mm 8 m/S 753 mmHg 51%
    15:00 +16°C° 0 mm 8 m/S 753 mmHg 52%
    16:00 +16°C° 0.1 mm 8 m/S 753 mmHg 58%
    17:00 +15°C° 0.1 mm 9 m/S 753 mmHg 64%
    18:00 +13°C° 0.1 mm 9 m/S 753 mmHg 69%
    19:00 +13°C° 0.1 mm 9 m/S 753 mmHg 69%
    20:00 +12°C° 0.1 mm 9 m/S 753 mmHg 69%
    21:00 +12°C° 0.1 mm 9 m/S 754 mmHg 69%
    22:00 +12°C° 0.1 mm 9 m/S 753 mmHg 69%
    23:00 +12°C° 0.1 mm 9 m/S 753 mmHg 68%

    26 Oktober, Samstag

    Zeit Temperatur Niederschläge Wind Luftdruck Luftfeuchtigkeit
    00:00 +12°C° 0.1 mm 9 m/S 753 mmHg 68%
    01:00 +11°C° 0.1 mm 9 m/S 753 mmHg 68%
    02:00 +11°C° 0.1 mm 9 m/S 754 mmHg 68%
    03:00 +11°C° 0.1 mm 8 m/S 754 mmHg 68%
    04:00 +11°C° 0.1 mm 8 m/S 754 mmHg 66%
    05:00 +11°C° 0.1 mm 8 m/S 755 mmHg 64%
    06:00 +11°C° 0.1 mm 8 m/S 756 mmHg 62%
    07:00 +12°C° 0 mm 8 m/S 756 mmHg 60%
    08:00 +12°C° 0 mm 7 m/S 756 mmHg 57%
    09:00 +14°C° 0 mm 7 m/S 757 mmHg 55%
    10:00 +14°C° 0 mm 7 m/S 757 mmHg 53%
    11:00 +15°C° 0 mm 6 m/S 758 mmHg 51%
    12:00 +16°C° 0 mm 6 m/S 758 mmHg 49%
    13:00 +16°C° 0 mm 6 m/S 758 mmHg 50%
    14:00 +15°C° 0 mm 6 m/S 758 mmHg 51%
    15:00 +15°C° 0 mm 6 m/S 758 mmHg 53%
    16:00 +14°C° 0 mm 5 m/S 759 mmHg 55%
    17:00 +13°C° 0 mm 5 m/S 759 mmHg 58%
    18:00 +13°C° 0 mm 4 m/S 760 mmHg 61%
    19:00 +12°C° 0 mm 4 m/S 760 mmHg 65%
    20:00 +11°C° 0 mm 4 m/S 761 mmHg 70%
    21:00 +10°C° 0 mm 4 m/S 762 mmHg 75%
    22:00 +9°C° 0 mm 3 m/S 762 mmHg 76%
    23:00 +9°C° 0 mm 3 m/S 762 mmHg 77%

    27 Oktober, Sonntag

    Zeit Temperatur Niederschläge Wind Luftdruck Luftfeuchtigkeit
    00:00 +9°C° 0 mm 3 m/S 762 mmHg 79%
    01:00 +9°C° 0 mm 2 m/S 762 mmHg 79%
    02:00 +8°C° 0 mm 2 m/S 762 mmHg 80%
    03:00 +9°C° 0 mm 1 m/S 762 mmHg 81%
    04:00 +10°C° 0 mm 1 m/S 762 mmHg 79%
    05:00 +10°C° 0 mm 2 m/S 762 mmHg 76%
    06:00 +12°C° 0 mm 2 m/S 763 mmHg 74%
    07:00 +13°C° 0 mm 2 m/S 763 mmHg 67%
    08:00 +14°C° 0 mm 2 m/S 763 mmHg 61%
    09:00 +15°C° 0 mm 2 m/S 763 mmHg 55%
    10:00 +16°C° 0 mm 3 m/S 763 mmHg 53%
    11:00 +17°C° 0 mm 3 m/S 763 mmHg 51%
    12:00 +17°C° 0 mm 3 m/S 763 mmHg 49%
    13:00 +17°C° 0 mm 4 m/S 763 mmHg 50%
    14:00 +17°C° 0 mm 4 m/S 762 mmHg 52%
    15:00 +17°C° 0 mm 4 m/S 762 mmHg 53%
    16:00 +15°C° 0 mm 4 m/S 762 mmHg 57%
    17:00 +14°C° 0 mm 4 m/S 763 mmHg 61%
    18:00 +13°C° 0 mm 4 m/S 763 mmHg 66%
    19:00 +12°C° 0 mm 4 m/S 763 mmHg 70%
    20:00 +11°C° 0 mm 4 m/S 764 mmHg 74%
    21:00 +10°C° 0 mm 3 m/S 764 mmHg 78%
    22:00 +10°C° 0 mm 3 m/S 764 mmHg 81%
    23:00 +9°C° 0 mm 3 m/S 764 mmHg 83%

    28 Oktober, Montag

    Zeit Temperatur Niederschläge Wind Luftdruck Luftfeuchtigkeit
    00:00 +9°C° 0 mm 2 m/S 764 mmHg 86%
    01:00 +9°C° 0 mm 2 m/S 764 mmHg 86%
    02:00 +8°C° 0 mm 2 m/S 763 mmHg 86%
    03:00 +8°C° 0 mm 2 m/S 763 mmHg 86%
    04:00 +9°C° 0 mm 2 m/S 764 mmHg 83%
    05:00 +9°C° 0 mm 2 m/S 764 mmHg 80%
    06:00 +10°C° 0 mm 2 m/S 764 mmHg 77%
    07:00 +13°C° 0 mm 2 m/S 764 mmHg 67%
    08:00 +16°C° 0 mm 2 m/S 763 mmHg 57%
    09:00 +19°C° 0 mm 2 m/S 763 mmHg 47%
    10:00 +20°C° 0 mm 2 m/S 763 mmHg 43%
    11:00 +21°C° 0 mm 2 m/S 762 mmHg 40%
    12:00 +22°C° 0 mm 3 m/S 762 mmHg 36%
    13:00 +24°C° 0 mm 3 m/S 761 mmHg 36%
    14:00 +24°C° 0 mm 3 m/S 760 mmHg 36%
    15:00 +24°C° 0 mm 3 m/S 760 mmHg 36%
    16:00 +23°C° 0 mm 2 m/S 760 mmHg 40%
    17:00 +20°C° 0 mm 2 m/S 759 mmHg 45%
    18:00 +19°C° 0 mm 2 m/S 759 mmHg 49%
    19:00 +18°C° 0 mm 2 m/S 759 mmHg 52%
    20:00 +17°C° 0 mm 3 m/S 759 mmHg 54%
    21:00 +17°C° 0 mm 3 m/S 759 mmHg 57%
    22:00 +17°C° 0 mm 4 m/S 759 mmHg 51%
    23:00 +18°C° 0 mm 4 m/S 759 mmHg 46%
    Mehr zeigen